Regional Weather Roundup
Issued by NWS

Home | Current Version | Previous Version | Graphics & Text | Print | Product List | Glossary On
Versions: 1 2 3 4 5 6 7 8 9 10 11 12 13 14 15 16 17 18 19 20 21 22 23 24 25 26 27 28 29 30 31 32 33 34 35 36 37 38 39 40 41 42 43 44 45 46 47 48 49 50
020
ASUS45 KBOU 052007
RWRCO

WEATHER ROUNDUP FOR COLORADO
NATIONAL WEATHER SERVICE DENVER/BOULDER CO
200 PM MDT THU MAY 05 2016

NOTE: "FAIR" INDICATES FEW OR NO CLOUDS BELOW 12000 FEET WITH NO
SIGNIFICANT WEATHER AND/OR OBSTRUCTIONS TO VISIBILITY.

COZ001>005-013-030-031-052100-
...NORTHWEST COLORADO...

CITY           SKY/WX    TMP DP  RH WIND       PRES   REMARKS
CRAIG          FAIR      75  30  19 W8        30.10F
HAYDEN         FAIR      72  25  17 N6        30.13F
MEEKER         FAIR      76  24  14 MISG      30.11F
MOUNT WERNER   NOT AVBL
STEAMBOAT SPGS FAIR      73  28  19 NW8       30.15F
WALDEN         FAIR      70  21  16 SW9G17    30.25F
$$

COZ006>008-011-052100-
...WEST CENTRAL VALLEYS...

CITY           SKY/WX    TMP DP  RH WIND       PRES   REMARKS
GRAND JUNCTION FAIR      82  30  15 E6        30.00F
MONTROSE       FAIR      79  25  13 NE8       30.08F
EAGLE          SUNNY     73  21  14 CALM      30.15F
RIFLE          FAIR      78  23  13 VRB6      30.06F
DELTA          NOT AVBL
NUCLA          NOT AVBL
$$

COZ017>023-064>068-052100-
...SOUTHWEST COLORADO...

CITY           SKY/WX    TMP DP  RH WIND       PRES   REMARKS
DURANGO        PTSUNNY   73  31  21 SE10G17   30.17F
CORTEZ         FAIR      80  29  15 SE15G24   30.08F
PAGOSA SPRINGS FAIR      69  17  13 SW5       30.24F
TELLURIDE      FAIR      64  21  19 SE5       30.31F
WOLF CREEK PAS FAIR      45  21  39 S13G20    30.51F
$$

COZ009-010-012-014-032>034-037-058>063-052100-
...CENTRAL COLORADO...

CITY           SKY/WX    TMP DP  RH WIND       PRES   REMARKS
ASPEN          FAIR      70  22  16 S12G21    30.20F
BUENA VISTA    FAIR      69  21  16 CALM      30.24F
COPPER MTN     NOT AVBL
BERTHOUD PASS  PTSUNNY   43  32  65 SW6       30.52S
COTTONWOOD PAS FAIR      66  16  14 E5        30.35F
GUNNISON       FAIR      68  21  17 S5        30.24F
KREMMLING      FAIR      73  12   9 CALM      30.20F
LEADVILLE      FAIR      60  14  16 S10G20    30.33F
MONARCH PASS   CLOUDY    46  19  34 MISG      30.59F
SALIDA         FAIR      73  21  14 S8        30.29F
SUNLIGHT       FAIR      55  23  28 CALM      30.43F
WILKERSON PASS FAIR      54  21  28 W5        30.47F
$$

COZ069>075-052100-
...SAN LUIS VALLEY/SANGRE DE CRISTO MOUNTAINS...

CITY           SKY/WX    TMP DP  RH WIND       PRES   REMARKS
ALAMOSA        FAIR      71  20  14 MISG      30.23F
LA VETA PASS   FAIR      59  23  25 CALM      30.40F
SAGUACHE       FAIR      68  25  19 S10       30.26F
$$

COZ035-036-038>040-052100-
...NORTHERN COLORADO FRONT RANGE...

CITY           SKY/WX    TMP DP  RH WIND       PRES   REMARKS
DENVER INTL AP PTSUNNY   78  30  17 SE5       30.08F
DMNS CITY PARK   N/A     78  29  16 E6G13     30.06F
AURORA         FAIR      78  30  17 VRB7      30.10F
FRONT RANGE AP NOT AVBL
ERIE MUNI ARPT FAIR      79  28  15 SE5       30.06F
BOULDER MUN AP FAIR      79  32  18 E6        30.06F
CENTENNIAL     PTSUNNY   76  22  13 CALM      30.11F
BROOMFIELD     PTSUNNY   77  28  16 E7        30.10F
FORT COLLINS   FAIR      81  36  19 E7G16     30.04F
LONGMONT       FAIR      82  32  17 S8        30.07F
$$

COZ041-046-047-076>085-087-088-052100-
...PIKES PEAK/PALMER DIVIDE AND SOUTHERN FOOTHILLS...

CITY           SKY/WX    TMP DP  RH WIND       PRES   REMARKS
COLO. SPRINGS  FAIR      76  24  14 VRB5      30.14F
A. F. ACADEMY  FAIR      77  27  15 S13       30.14F
SCHRIEVER AFB  NOT AVBL
ELLICOTT       LGT RAIN N/A N/A N/A CALM      30.13F
FALCON         NOT AVBL
FORT CARSON    FAIR      78  32  19 VRB6G23   30.11F
LIMON          FAIR      75  31  19 E10G24    30.10F
MONUMENT HILL  FAIR      70  27  19 CALM      30.20F
TRINIDAD       FAIR      79  24  13 E8        30.12F
$$

COZ042>045-048>051-090-091-052100-
...NORTHEAST COLORADO...

CITY           SKY/WX    TMP DP  RH WIND       PRES   REMARKS
GREELEY ARPT   FAIR      79  36  21 E6        30.06F
AKRON          FAIR      79  36  21 SE13G20   30.06F
BURLINGTON     FAIR      81  34  18 S15G24    30.07F
WRAY           NOT AVBL
STERLING       FAIR      81  45  28 SW10      30.01F
HOLYOKE        NOT AVBL
FORT MORGAN    FAIR      81  32  16 SW5       30.06F
$$

COZ086-089-092>099-052100-
...SOUTHEAST COLORADO...

CITY           SKY/WX    TMP DP  RH WIND       PRES   REMARKS
PUEBLO         FAIR      83  35  18 E9        30.05F
LA JUNTA       FAIR      81  33  17 VRB6      30.05F
LAMAR          FAIR      81  43  26 VRB7      30.03F
SPRINGFIELD      N/A     81  39  22 CALM      30.06F
$$




USA.gov is the U.S. government's official web portal to all federal, state and local government web resources and services.